Flag for Hungary Weather past 2 weeks in Miskolc, Hungary

Now
62 °F

Overcast.


Feels Like: 62 °F
Forecast: 53 / 74 °F
Wind: 2 mph from Northeast

Location: Miskolc

Current Time: Sep 19, 2014 at 10:59:51 AM

Latest Report: Sep 19, 2014 at 10:00 AM


Visibility: 16 mi

Pressure: 30.18 "Hg

Humidity: 71%

Dew point: 52 °F

Location of MiskolcLocation

Historic Weather in Miskolc — Graph

°F

Miskolc temperature yesterday

Maximum temperature yesterday: 73 °F (at 4:00 PM)
Minimum temperature yesterday: 50 °F (at 6:00 AM)
Average temperature yesterday: 59 °F

Past Weeks' High & Low Weather Summary

 TemperatureHumidityPressure
High81 °F (Sep 4, 5:00 PM)94% (Sep 10, 11:00 AM)30.19 "Hg (Sep 10, 11:00 AM)
Low49 °F (Sep 19, 6:00 AM)39% (Sep 4, 3:00 PM)29.86 "Hg (Sep 11, 5:00 PM)
Average64 °F78%30.01 "Hg
* Reported Sep 4 9:00 AM — Sep 19 9:00 AM, Miskolc, Weather by CustomWeather, © 2014

Note: Actual official high and low records may vary slightly from our data, if they occured in-between our weather recording intervals... More about our weather records

Advertising

Miskolc weather history for previous 24 hours

 ConditionsComfort  
Time TempWeatherWind HumidityBarometerVisibility
9:00 AM
Sep 19
58 °FPartly sunny.1 mph77%30.19 "Hg16 mi
8:00 AM52 °FPartly sunny.No wind89%30.19 "Hg12 mi
7:00 AM50 °FPartly sunny.No wind91%30.18 "Hg12 mi
6:00 AM49 °FPassing clouds.No wind91%30.17 "Hg9 mi
5:00 AM50 °FPassing clouds.No wind91%30.17 "Hg9 mi
4:00 AM51 °FPassing clouds.No wind91%30.17 "Hg11 mi
3:00 AM51 °FPassing clouds.No wind90%30.17 "Hg9 mi
2:00 AM51 °FPassing clouds.No wind90%30.17 "Hg12 mi
1:00 AM53 °FPassing clouds.No wind87%30.17 "Hg12 mi
12:00 AM54 °FPassing clouds.No wind84%30.17 "Hg16 mi
11:00 PM
Sep 18
55 °FPassing clouds.1 mph82%30.17 "Hg12 mi
10:00 PM56 °FPassing clouds.1 mph79%30.17 "Hg16 mi
9:00 PM58 °FPassing clouds.1 mph78%30.17 "Hg16 mi
8:00 PM59 °FPassing clouds.No wind74%30.16 "Hg16 mi
5:00 PM72 °FPassing clouds.2 mph40%30.13 "Hg22 mi
4:00 PM73 °FPassing clouds.1 mph40%30.13 "Hg22 mi
3:00 PM73 °FPassing clouds.2 mph45%30.14 "Hg19 mi
2:00 PM72 °FPassing clouds.1 mph52%30.14 "Hg19 mi
1:00 PM70 °FPassing clouds.2 mph59%30.16 "Hg19 mi
12:00 PM67 °FPassing clouds.1 mph62%30.17 "Hg19 mi
11:00 AM63 °FPassing clouds.1 mph68%30.19 "Hg16 mi
10:00 AM60 °FSunny.1 mph72%30.19 "Hg16 mi
Weather by CustomWeather, © 2014

See weather overviewHow to use our weather pages